Regional Weather Roundup
Issued by NWS Midland/Odessa, TX

Skip options and go directly to product.
Home | Oldest Version | Previous Version | Current Version | All | Text Only | Save Text | Print | Product List | Glossary Off

Skip product version selection by date and time.   

121
ASUS44 KMAF 301610
RWRMAF
MIDLAND AREA WEATHER ROUNDUP
NATIONAL WEATHER SERVICE MIDLAND TX
1100 AM CDT MON MAY 30 2016

...IN SOUTHWEST TEXAS AND SOUTHEAST NEW MEXICO...

CITY           SKY/WX    TMP DP  RH WIND       PRES   REMARKS
ALPINE         CLOUDY    72  55  55 SW12G18   30.22R
ANDREWS        CLOUDY    67  59  74 SE9G16    30.10F
ARTESIA        CLOUDY    66  61  82 CALM      30.10S
BIG SPRING     PTSUNNY   70  62  75 S7        30.11F
CARLSBAD       SUNNY     70  57  63 NE3       30.07F
DRYDEN           N/A     75  71  87 SE12G21   30.04F
FORT STOCKTON  NOT AVBL
GUAD PASS      NOT AVBL
HOBBS          PTSUNNY   68  61  77 E8        30.12F
MARFA          MOSUNNY   73  52  47 S7        30.16F
MIDLAND AIRPK  PTSUNNY   72  63  72 SE9       30.10F
MIDLAND INTL   CLOUDY    68  62  81 SE13      30.09F
ODESSA         CLOUDY    66  61  84 SE9       30.10F
PECOS          PTSUNNY   70  58  66 NE6       30.07S
PRESIDIO       FAIR      85  58  40 E6        30.02F
SEMINOLE       CLOUDY    71  58  64 SE9       30.11F
SNYDER           N/A     65  61  87 CALM      30.10F
WINK           NOT AVBL
$$
...OTHER STATIONS IN TEXAS...

CITY           SKY/WX    TMP DP  RH WIND       PRES   REMARKS
ABILENE        CLOUDY    70  65  84 SW7       30.07F
AMARILLO       SUNNY     68  54  60 S10       30.11S
AUSTIN         CLOUDY    75  62  64 SE15      29.95F
BROWNSVILLE    MOSUNNY   85  75  72 SE12      29.99F
CORPUS CHRISTI RAIN      72  67  84 N23G37    30.06R
DALLAS FTW     CLOUDY    76  64  66 VRB3      30.02R
DEL RIO        LGT RAIN  71  70  96 E15       30.06R FOG
EL PASO        NOT AVBL
HOUSTON INT    CLOUDY    79  71  76 S9        30.05F
LUBBOCK        CLOUDY    66  58  75 CALM      30.11F
SAN ANGELO     PTSUNNY   76  67  73 VRB6      30.05F
SAN ANTONIO    PTSUNNY   74  64  71 VRB6      30.00F
WACO           CLOUDY    73  64  73 NW9       30.02S
WICHITA FALLS  NOT AVBL
$$
...OTHER LOCATIONS IN NEW MEXICO...

CITY           SKY/WX    TMP DP  RH WIND       PRES   REMARKS
ALAMAGORDO     MOSUNNY   81  37  21 S7        30.08F
ALBUQUERQUE    PTSUNNY   68  40  35 W5        30.14F
CANNON AFB     MOSUNNY   67  56  67 SW13      30.12F
CLOVIS         SUNNY     72  55  56 SW14G22   30.11F
HOLLOMAN AFB   MOSUNNY   80  37  21 SE7       30.06F
ROSWELL        MOSUNNY   68  53  58 VRB3      30.09F
RUIDOSO          N/A     72  28  20 W12G17    30.24F
SANTA FE       SUNNY     66  39  37 SE3       30.17F
TRUTH OR CONSE SUNNY     78  37  22 SW7       30.09F
TUCUMCARI      CLOUDY    68  53  58 SW12      30.10F
$$

USA.gov is the U.S. government's official web portal to all federal, state and local government web resources and services.